Flag for Germany Weather past 2 weeks in Leipzig, Saxony, Germany

Now
66 °F

Sunny.


Feels Like: 66 °F
Forecast: 63 / 86 °F
Wind: 8 mph from East

Location: Leipzig-Schkeuditz

Current Time: Jul 1, 2015 at 9:05:47 AM

Latest Report: Jul 1, 2015 at 8:20 AM


Visibility: 10 mi

Pressure: 30.21 "Hg

Humidity: 60%

Dew point: 52 °F

Location of LeipzigLocation

Historic Weather in Leipzig — Graph

°F

Leipzig temperature yesterday

Maximum temperature yesterday: 79 °F (at 3:50 PM)
Minimum temperature yesterday: 59 °F (at 5:20 AM)
Average temperature yesterday: 69 °F

Past Weeks' High & Low Weather Summary

 TemperatureHumidityPressure
High81 °F (Jun 29, 5:20 PM)100% (Jun 18, 5:20 AM)30.27 "Hg (Jun 18, 5:20 AM)
Low43 °F (Jun 17, 4:20 AM)28% (Jun 30, 6:50 PM)29.62 "Hg (Jun 23, 1:50 AM)
Average60 °F69%30.05 "Hg
* Reported Jun 16 7:20 AM — Jul 1 7:50 AM, Leipzig, Weather by CustomWeather, © 2015

Note: Actual official high and low records may vary slightly from our data, if they occured in-between our weather recording intervals... More about our weather records

Advertising

Leipzig weather history for previous 24 hours

 ConditionsComfort  
Time TempWeatherWind HumidityBarometerVisibility
7:50 AM
Wed, Jul 1
64 °FSunny.8 mph68%30.21 "Hg10 mi
7:20 AM63 °FSunny.9 mph73%30.21 "Hg10 mi
6:50 AM61 °FSunny.8 mph72%30.21 "Hg10 mi
6:20 AM59 °FSunny.5 mph72%30.21 "Hg10 mi
5:50 AM57 °FClear.8 mph77%30.21 "Hg10 mi
5:20 AM57 °FClear.9 mph77%30.21 "Hg10 mi
4:50 AM57 °FClear.7 mph77%30.18 "Hg10 mi
4:20 AM59 °FClear.8 mph72%30.18 "Hg10 mi
3:50 AM59 °FClear.8 mph72%30.18 "Hg10 mi
3:20 AM61 °FClear.7 mph68%30.18 "Hg10 mi
2:50 AM63 °FClear.8 mph64%30.18 "Hg10 mi
2:20 AM61 °FClear.7 mph63%30.18 "Hg10 mi
1:50 AM63 °FClear.6 mph59%30.18 "Hg10 mi
1:20 AM64 °FClear.7 mph56%30.18 "Hg10 mi
12:50 AM64 °FClear.6 mph56%30.18 "Hg10 mi
12:20 AM66 °FClear.7 mph52%30.18 "Hg10 mi
11:50 PM
Tue, Jun 30
64 °FClear.6 mph56%30.18 "Hg10 mi
11:20 PM66 °FClear.6 mph52%30.18 "Hg10 mi
10:50 PM66 °FClear.5 mph52%30.18 "Hg10 mi
10:20 PM68 °FSunny.6 mph49%30.18 "Hg10 mi
9:50 PM72 °FSunny.5 mph41%30.18 "Hg10 mi
9:20 PM72 °FSunny.5 mph38%30.15 "Hg10 mi
8:50 PM75 °FSunny.5 mph34%30.15 "Hg10 mi
8:20 PM77 °FSunny.5 mph30%30.15 "Hg10 mi
7:50 PM77 °FSunny.6 mph28%30.15 "Hg10 mi
6:50 PM77 °FSunny.8 mph28%30.15 "Hg10 mi
6:20 PM79 °FSunny.6 mph32%30.15 "Hg10 mi
5:50 PM77 °FSunny.9 mph34%30.15 "Hg10 mi
4:50 PM79 °FSunny.8 mph37%30.15 "Hg10 mi
4:20 PM79 °FSunny.6 mph37%30.15 "Hg10 mi
3:50 PM79 °FPassing clouds.6 mph37%30.18 "HgN/A
2:50 PM77 °FSunny.9 mph42%30.18 "Hg10 mi
2:20 PM77 °FPassing clouds.7 mph42%30.18 "HgN/A
1:50 PM77 °FPassing clouds.7 mph44%30.18 "HgN/A
1:20 PM75 °FPassing clouds.8 mph47%30.18 "HgN/A
12:50 PM77 °FPassing clouds.7 mph47%30.18 "HgN/A
12:20 PM75 °FPassing clouds.7 mph50%30.18 "HgN/A
11:50 AM73 °FPassing clouds.8 mph57%30.18 "HgN/A
11:20 AM73 °FPassing clouds.8 mph57%30.18 "HgN/A
10:50 AM72 °FPassing clouds.7 mph57%30.18 "HgN/A
10:20 AM72 °FSunny.8 mph57%30.18 "Hg10 mi
9:50 AM70 °FSunny.8 mph60%30.21 "Hg10 mi
9:20 AM68 °FSunny.7 mph69%30.18 "Hg10 mi
Weather by CustomWeather, © 2015

See weather overviewHow to use our weather pages